Content
SEND FEEDBACK

Daily
Averages
Monthly
Summary
United States of America

WILMINGTON, NORTH CAROLINA


Home > North America > United States > North Carolina
Elevation: 72 feet     Latitude: 34 16N     Longitude: 077 54W

WEATHER
 
SELECT A DAY
Number of Records: 206,538;   Date Range: 1/1/95 - 4/17/14
 
SHARE

PRINT THIS DATA

[ ← Previous Day ]
WEATHER ALMANAC - JANUARY 2, 2013
[ Next Day → ]
[ °C ]   °F
Weather ElementAverageHighLow
Temperature51.2 °F54 °F (5:53 am)44.1 °F (9:53 pm)
Dewpoint47.7 °F52 °F (4:53 am)39 °F (9:53 pm)
Humidity88 %96 % (4:53 am)77 % (2:05 pm)
Barometer30.02 in30.19 in (10:53 pm)29.90 in (4:43 am)
Wind Speed7.2 mph12.7 mph (9:53 am)
Weather ElementAverage
Visibility7.5 mi
Wind DirectionENE (66.5 °)

Weather ElementTotal
Precipitation0.22 in
Heating Degree Days16 (Base 65)
Averaged from 49 records on January 2, 2013
WEATHER CONDITIONS BREAKOUT
WIND DIRECTION BREAKOUT
WEATHER BY HOUR - JANUARY 2, 2013
[ °C ]   °F
Local TimeTemperatureDewpointHumidityBarometerVisibilityWind DirectionWind SpeedGust SpeedPrecipitationEventsConditions
1:53 AM53.1 °F51.1 °F93 %29.93 in7.0 miCalmOvercast
2:53 AM53.1 °F51.1 °F93 %29.92 in8.0 miCalmOvercast
3:53 AM53.6 °F51.8 °F94 %29.92 in8.0 miNE (50°)3.5 mphOvercast
4:43 AM53.6 °F51.8 °F94 %29.90 in6.0 miCalm0.00 inOvercast
4:53 AM53.1 °F52.0 °F96 %29.92 in5.0 miNNW (330°)3.5 mph0.00 inRainLight Rain
5:01 AM53.6 °F51.8 °F94 %29.91 in1.8 miNorth (360°)3.5 mph0.02 inRainRain
5:06 AM53.6 °F51.8 °F94 %29.91 in2.0 miCalm0.03 inRainRain
5:53 AM54.0 °F52.0 °F93 %29.91 in4.0 miNNE (30°)6.9 mph0.05 inRainLight Rain
5:59 AM53.6 °F51.8 °F94 %29.91 in2.5 miNNE (20°)4.6 mph0.00 inOvercast
6:26 AM53.6 °F51.8 °F94 %29.91 in4.0 miVariable3.5 mph0.01 inRainLight Rain
6:53 AM54.0 °F52.0 °F93 %29.91 in7.0 miNNE (30°)4.6 mph0.01 inOvercast
7:32 AM53.6 °F51.8 °F94 %29.95 in4.0 miNNE (20°)6.9 mph0.00 inRainLight Rain
7:42 AM53.6 °F51.8 °F94 %29.94 in2.5 miNNE (30°)6.9 mph0.01 inRainLight Rain
7:49 AM53.6 °F51.8 °F94 %29.94 in3.0 miNE (40°)6.9 mphRainLight Rain
7:53 AM54.0 °F52.0 °F93 %29.96 in2.5 miNNE (20°)6.9 mph0.02 inRainLight Rain
8:09 AM53.6 °F51.8 °F94 %29.96 in6.0 miNNE (20°)9.2 mph0.01 inOvercast
8:38 AM53.6 °F51.8 °F94 %29.98 in2.0 miNorth (10°)10.4 mph0.02 inRainLight Rain
8:53 AM53.1 °F51.1 °F93 %29.98 in4.0 miNorth (10°)11.5 mph0.03 inRainLight Rain
9:28 AM53.6 °F51.8 °F94 %30.02 in2.5 miNNE (30°)10.4 mph0.00 inRainLight Rain
9:45 AM53.6 °F51.8 °F94 %30.01 in1.8 miNE (40°)9.2 mph0.01 inRainLight Rain
9:53 AM53.6 °F50.0 °F88 %30.02 in3.0 miNNE (20°)12.7 mphRainLight Rain
10:53 AM51.1 °F48.0 °F89 %30.05 in10.0 miNNE (30°)12.7 mphOvercast
11:26 AM51.8 °F48.2 °F88 %30.04 in10.0 miNNE (20°)12.7 mphOvercast
11:39 AM50.0 °F46.4 °F87 %30.04 in10.0 miNorth (360°)12.7 mphOvercast
11:53 AM50.0 °F48.0 °F93 %30.04 in10.0 miNNE (20°)9.2 mph0.00 inRainLight Rain
12:35 PM51.8 °F48.2 °F88 %30.02 in10.0 miENE (70°)6.9 mph0.00 inOvercast
12:50 PM51.8 °F48.2 °F88 %30.02 in10.0 miENE (70°)3.5 mph0.00 inOvercast
12:53 PM52.0 °F48.0 °F86 %30.02 in10.0 miEast (90°)3.5 mph0.00 inOvercast
1:37 PM53.6 °F48.2 °F82 %30.02 in10.0 miNE (50°)6.9 mphOvercast
1:53 PM53.1 °F48.0 °F83 %30.03 in10.0 miNNE (20°)5.8 mphOvercast
2:05 PM53.6 °F46.4 °F77 %30.03 in10.0 miNorth (360°)6.9 mphOvercast
2:16 PM51.8 °F46.4 °F82 %30.03 in10.0 miNorth (360°)6.9 mphOvercast
2:27 PM51.8 °F46.4 °F82 %30.03 in10.0 miNNE (20°)6.9 mphOvercast
2:53 PM53.1 °F46.9 °F80 %30.04 in10.0 miNorth (360°)8.1 mphOvercast
3:07 PM51.8 °F46.4 °F82 %30.04 in10.0 miNorth (10°)6.9 mphOvercast
3:22 PM51.8 °F46.4 °F82 %30.05 in10.0 miNNE (20°)9.2 mphOvercast
3:53 PM52.0 °F45.0 °F77 %30.06 in10.0 miNNE (20°)10.4 mphOvercast
4:53 PM50.0 °F44.1 °F80 %30.09 in10.0 miNNE (20°)11.5 mphOvercast
5:21 PM48.2 °F44.6 °F87 %30.09 in10.0 miNNE (20°)9.2 mphOvercast
5:53 PM48.2 °F42.8 °F82 %30.11 in10.0 miNNE (30°)11.5 mphOvercast
6:24 PM46.4 °F42.8 °F87 %30.11 in10.0 miNE (50°)9.2 mphOvercast
6:53 PM46.9 °F43.0 °F86 %30.13 in10.0 miNNE (20°)6.9 mphOvercast
7:19 PM46.4 °F42.8 °F87 %30.13 in10.0 miNNE (30°)9.2 mphOvercast
7:53 PM46.0 °F41.0 °F83 %30.16 in10.0 miNorth (10°)10.4 mphOvercast
8:53 PM45.0 °F39.9 °F82 %30.16 in10.0 miNE (40°)5.8 mphOvercast
9:53 PM44.1 °F39.0 °F82 %30.16 in10.0 miNE (40°)9.2 mphOvercast
10:32 PM44.6 °F39.2 °F81 %30.18 in10.0 miNNE (20°)6.9 mphOvercast
10:53 PM44.1 °F39.0 °F82 %30.19 in10.0 miNorth (10°)6.9 mphOvercast
11:53 PM44.1 °F39.0 °F82 %30.19 in10.0 miNNE (30°)8.1 mphOvercast
Hourly data recorded from KILM, located 0.61 miles away from Wilmington, North Carolina







STORIES FROM OUR PARTNERS